This is the latest recevied weather packets stored in our database for station/object CQ0XPG-11. If no packets are shown the sender has not sent any weather packets the latest 10 day(s).
| Time | Temp. | Humidity | Pressure | Rain* | Wind** | Luminosity | Snow |
|---|---|---|---|---|---|---|---|
| 1778122996 | 5.56° C | 100% | 1000.1 hPa | 0 mm | - | - | - |
| 1778122680 | 5.56° C | 100% | 1000.1 hPa | 0 mm | - | - | - |
| 1778122375 | 5.56° C | 100% | 1000.1 hPa | 0 mm | - | - | - |
| 1778122107 | 5.56° C | 100% | 1000.2 hPa | 0 mm | - | - | - |
| 1778121469 | 5.56° C | 100% | 1000.3 hPa | 0 mm | - | - | - |
| 1778121170 | 5.56° C | 100% | 1000.3 hPa | 0 mm | - | - | - |
| 1778120863 | 6.11° C | 100% | 1000.3 hPa | 0 mm | - | - | - |
| 1778120563 | 5.56° C | 100% | 1000.3 hPa | 0 mm | - | - | - |
| 1778120292 | 5.56° C | 100% | 1000.4 hPa | 0 mm | - | - | - |
| 1778119942 | 6.11° C | 100% | 1000.3 hPa | 0 mm | - | - | - |
| 1778119668 | 6.11° C | 100% | 1000.4 hPa | 0 mm | - | - | - |
| 1778119357 | 6.11° C | 100% | 1000.4 hPa | 0 mm | - | - | - |
| 1778119041 | 6.11° C | 100% | 1000.6 hPa | 0 mm | - | - | - |
| 1778118737 | 6.67° C | 100% | 1000.6 hPa | 0 mm | - | - | - |
| 1778118454 | 6.11° C | 100% | 1000.6 hPa | 0 mm | - | - | - |
| 1778118135 | 6.67° C | 100% | 1000.7 hPa | 0 mm | - | - | - |
| 1778117830 | 6.67° C | 100% | 1000.8 hPa | 0 mm | - | - | - |
| 1778117537 | 6.67° C | 100% | 1000.8 hPa | 0 mm | - | - | - |
| 1778116915 | 6.67° C | 100% | 1001 hPa | 0 mm | - | - | - |
| 1778116658 | 7.22° C | 100% | 1001.1 hPa | 0 mm | - | - | - |
| 1778116303 | 7.22° C | 100% | 1001.2 hPa | 0 mm | - | - | - |
| 1778116023 | 7.22° C | 100% | 1001.2 hPa | 0 mm | - | - | - |
| 1778115721 | 7.78° C | 100% | 1001.2 hPa | 0 mm | - | - | - |
| 1778115415 | 7.78° C | 100% | 1001.2 hPa | 0 mm | - | - | - |
| 1778112097 | 8.89° C | 100% | 1001.7 hPa | 0 mm | - | - | - |
* Rain since midnight (hover to see other rain measurements)
** Current wind speed in m/s (hover to see current wind gust speed)